Location: Gro�sch�nbrunn
(49.5760°N, 11.8868°E)
Time: 17:22:58
(UTC+00:00)

Cosmos 2098 Rocket - Pass Details

Date: 18 September 2020
Orbit: 366 x 1185 km, 82.9° (Epoch: 31 October)

Event Time Altitude Azimuth Distance (km) Brightness Sun altitude
Rises 20:52:56 0° 349° (NNW) 4,074 8.1 -31.5°
Reaches altitude 10° 20:55:45 10° 347° (NNW) 3,069 7.3 -31.8°
Enters shadow 21:02:54 70° 270° (W) 1,120 4.2 -32.5°
